Time,TemperatureF,DewpointF,PressureIn,WindDirection,WindDirectionDegrees,WindSpeedMPH,WindSpeedGustMPH,Humidity,HourlyPrecipIn,Conditions,Clouds,dailyrainin,SoftwareType,DateUTC
2013-09-30 00:07:00,52.7,52.2,30.03,WSW,247,0.0,-999.0,98,-99.99,,,0.00,Acu-Link.com,2013-09-30 04:07:00,
2013-09-30 00:22:00,52.5,52.0,30.03,WSW,247,0.0,-999.0,98,-99.99,,,0.00,Acu-Link.com,2013-09-30 04:22:00,
2013-09-30 00:37:00,52.2,51.6,30.02,SW,225,0.0,-999.0,98,-99.99,,,0.00,Acu-Link.com,2013-09-30 04:37:00,
2013-09-30 00:53:00,52.0,51.4,30.02,SSW,202,0.0,-999.0,98,-99.99,,,0.00,Acu-Link.com,2013-09-30 04:53:00,
2013-09-30 01:08:00,51.6,51.1,30.02,West,270,0.0,-999.0,98,-99.99,,,0.00,Acu-Link.com,2013-09-30 05:08:00,
2013-09-30 01:23:00,51.3,50.7,30.02,SSW,202,0.0,-999.0,98,-99.99,,,0.00,Acu-Link.com,2013-09-30 05:23:00,
2013-09-30 01:38:00,51.1,50.5,30.03,West,270,0.0,-999.0,98,-99.99,,,0.00,Acu-Link.com,2013-09-30 05:38:00,
2013-09-30 01:54:00,50.7,50.2,30.03,SW,225,0.0,-999.0,98,-99.99,,,0.00,Acu-Link.com,2013-09-30 05:54:00,
2013-09-30 02:09:00,50.5,50.0,30.03,NW,315,0.0,-999.0,98,-99.99,,,0.00,Acu-Link.com,2013-09-30 06:09:00,
2013-09-30 02:24:00,50.4,49.8,30.03,SW,225,0.0,-999.0,98,-99.99,,,0.00,Acu-Link.com,2013-09-30 06:24:00,
2013-09-30 02:39:00,50.2,49.6,30.02,SW,225,0.0,-999.0,98,-99.99,,,0.00,Acu-Link.com,2013-09-30 06:39:00,
2013-09-30 02:54:00,49.8,49.3,30.02,West,270,0.0,-999.0,98,-99.99,,,0.00,Acu-Link.com,2013-09-30 06:54:00,
2013-09-30 03:10:00,49.8,49.3,30.02,SW,225,0.0,-999.0,98,-99.99,,,0.00,Acu-Link.com,2013-09-30 07:10:00,
2013-09-30 03:25:00,49.5,48.9,30.02,SW,225,0.0,-999.0,98,-99.99,,,0.00,Acu-Link.com,2013-09-30 07:25:00,
2013-09-30 03:40:00,49.3,48.7,30.02,SW,225,0.0,-999.0,98,-99.99,,,0.00,Acu-Link.com,2013-09-30 07:40:00,
2013-09-30 03:55:00,49.1,48.6,30.00,SW,225,0.0,-999.0,98,-99.99,,,0.00,Acu-Link.com,2013-09-30 07:55:00,
2013-09-30 04:10:00,48.7,48.2,30.00,SW,225,0.0,-999.0,98,-99.99,,,0.00,Acu-Link.com,2013-09-30 08:10:00,
2013-09-30 04:25:00,48.7,48.2,30.00,SW,225,0.0,-999.0,98,-99.99,,,0.00,Acu-Link.com,2013-09-30 08:25:00,
2013-09-30 04:41:00,48.6,48.0,30.01,SW,225,0.0,-999.0,98,-99.99,,,0.00,Acu-Link.com,2013-09-30 08:41:00,
2013-09-30 04:56:00,48.6,48.0,30.01,West,270,0.0,-999.0,98,-99.99,,,0.00,Acu-Link.com,2013-09-30 08:56:00,
2013-09-30 05:11:00,48.2,47.7,30.01,SW,225,0.0,-999.0,98,-99.99,,,0.00,Acu-Link.com,2013-09-30 09:11:00,
2013-09-30 05:26:00,48.2,47.7,30.01,WSW,247,0.0,-999.0,98,-99.99,,,0.00,Acu-Link.com,2013-09-30 09:26:00,
2013-09-30 05:41:00,48.2,47.7,30.01,SW,225,0.0,-999.0,98,-99.99,,,0.00,Acu-Link.com,2013-09-30 09:41:00,
2013-09-30 05:56:00,48.0,47.5,30.01,SW,225,0.0,-999.0,98,-99.99,,,0.00,Acu-Link.com,2013-09-30 09:56:00,
2013-09-30 06:12:00,48.0,47.5,30.01,SW,225,0.0,-999.0,98,-99.99,,,0.00,Acu-Link.com,2013-09-30 10:12:00,
2013-09-30 06:27:00,47.8,47.3,30.01,SW,225,0.0,-999.0,98,-99.99,,,0.00,Acu-Link.com,2013-09-30 10:27:00,
2013-09-30 06:42:00,47.5,46.9,30.02,SW,225,0.0,-999.0,98,-99.99,,,0.00,Acu-Link.com,2013-09-30 10:42:00,
2013-09-30 06:57:00,47.3,46.8,30.01,SW,225,0.0,-999.0,98,-99.99,,,0.00,Acu-Link.com,2013-09-30 10:57:00,
2013-09-30 07:13:00,47.3,46.8,30.01,SW,225,0.0,-999.0,98,-99.99,,,0.00,Acu-Link.com,2013-09-30 11:13:00,
2013-09-30 07:28:00,47.5,46.9,30.01,SW,225,0.0,-999.0,98,-99.99,,,0.00,Acu-Link.com,2013-09-30 11:28:00,
2013-09-30 07:43:00,47.3,46.8,30.03,West,270,0.0,-999.0,98,-99.99,,,0.00,Acu-Link.com,2013-09-30 11:43:00,
2013-09-30 07:58:00,47.1,46.6,30.02,WSW,247,0.0,-999.0,98,-99.99,,,0.00,Acu-Link.com,2013-09-30 11:58:00,
2013-09-30 08:14:00,50.0,49.5,30.03,SSW,202,0.0,-999.0,98,-99.99,,,0.00,Acu-Link.com,2013-09-30 12:14:00,
2013-09-30 08:29:00,50.7,50.2,30.02,SW,225,0.0,-999.0,98,-99.99,,,0.00,Acu-Link.com,2013-09-30 12:29:00,
2013-09-30 08:44:00,51.6,51.1,30.02,WSW,247,0.0,-999.0,98,-99.99,,,0.00,Acu-Link.com,2013-09-30 12:44:00,
2013-09-30 08:59:00,52.9,52.3,30.02,SW,225,0.0,-999.0,98,-99.99,,,0.00,Acu-Link.com,2013-09-30 12:59:00,
2013-09-30 09:14:00,54.1,53.6,30.02,SSW,202,0.0,-999.0,98,-99.99,,,0.00,Acu-Link.com,2013-09-30 13:14:00,
2013-09-30 09:29:00,55.6,55.0,30.02,SSW,202,0.0,-999.0,98,-99.99,,,0.00,Acu-Link.com,2013-09-30 13:29:00,
2013-09-30 09:44:00,56.7,56.1,30.02,SSE,157,0.0,-999.0,98,-99.99,,,0.00,Acu-Link.com,2013-09-30 13:44:00,
2013-09-30 09:59:00,57.9,57.4,30.01,SSW,202,0.0,-999.0,98,-99.99,,,0.00,Acu-Link.com,2013-09-30 13:59:00,
2013-09-30 10:14:00,59.2,58.6,30.01,SSW,202,0.0,-999.0,98,-99.99,,,0.00,Acu-Link.com,2013-09-30 14:14:00,
2013-09-30 10:30:00,60.3,59.7,30.00,SSW,202,0.0,-999.0,98,-99.99,,,0.00,Acu-Link.com,2013-09-30 14:30:00,
2013-09-30 10:45:00,61.7,61.1,30.00,SSW,202,0.0,-999.0,98,-99.99,,,0.00,Acu-Link.com,2013-09-30 14:45:00,
2013-09-30 11:00:00,63.0,62.4,30.01,SSW,202,0.0,-999.0,98,-99.99,,,0.00,Acu-Link.com,2013-09-30 15:00:00,
2013-09-30 11:15:00,64.0,63.5,30.01,SSW,202,0.0,-999.0,98,-99.99,,,0.00,Acu-Link.com,2013-09-30 15:15:00,
2013-09-30 11:30:00,65.5,64.9,30.00,West,270,0.0,-999.0,98,-99.99,,,0.00,Acu-Link.com,2013-09-30 15:30:00,
2013-09-30 11:46:00,66.6,66.0,29.99,ESE,112,0.0,-999.0,98,-99.99,,,0.00,Acu-Link.com,2013-09-30 15:46:00,
2013-09-30 12:01:00,68.5,68.0,29.98,SE,135,0.0,-999.0,98,-99.99,,,0.00,Acu-Link.com,2013-09-30 16:01:00,
2013-09-30 12:16:00,70.5,69.9,29.98,ESE,112,0.0,-999.0,98,-99.99,,,0.00,Acu-Link.com,2013-09-30 16:16:00,
2013-09-30 12:31:00,70.0,69.4,29.97,NW,315,3.1,-999.0,98,-99.99,,,0.00,Acu-Link.com,2013-09-30 16:31:00,
2013-09-30 12:46:00,71.4,70.8,29.96,ESE,112,0.0,-999.0,98,-99.99,,,0.00,Acu-Link.com,2013-09-30 16:46:00,
2013-09-30 13:02:00,73.6,73.0,29.96,ESE,112,0.0,-999.0,98,-99.99,,,0.00,Acu-Link.com,2013-09-30 17:02:00,
2013-09-30 13:17:00,72.9,72.3,29.94,South,180,0.0,-999.0,98,-99.99,,,0.00,Acu-Link.com,2013-09-30 17:17:00,
2013-09-30 13:32:00,73.8,73.2,29.94,SE,135,0.0,-999.0,98,-99.99,,,0.00,Acu-Link.com,2013-09-30 17:32:00,
2013-09-30 13:47:00,73.9,73.3,29.94,South,180,0.0,-999.0,98,-99.99,,,0.00,Acu-Link.com,2013-09-30 17:47:00,
2013-09-30 14:03:00,72.5,71.9,29.94,SSW,202,0.0,-999.0,98,-99.99,,,0.00,Acu-Link.com,2013-09-30 18:03:00,
2013-09-30 14:18:00,73.2,72.6,29.94,South,180,0.0,-999.0,98,-99.99,,,0.00,Acu-Link.com,2013-09-30 18:18:00,
2013-09-30 14:33:00,72.3,71.7,29.93,South,180,0.0,-999.0,98,-99.99,,,0.00,Acu-Link.com,2013-09-30 18:33:00,
2013-09-30 14:48:00,72.0,71.4,29.93,SE,135,0.0,-999.0,98,-99.99,,,0.00,Acu-Link.com,2013-09-30 18:48:00,
2013-09-30 15:03:00,72.7,72.1,29.93,SSE,157,0.0,-999.0,98,-99.99,,,0.00,Acu-Link.com,2013-09-30 19:03:00,
2013-09-30 15:19:00,71.2,70.6,29.93,South,180,0.0,-999.0,98,-99.99,,,0.00,Acu-Link.com,2013-09-30 19:19:00,
2013-09-30 15:34:00,70.7,70.1,29.92,SSW,202,0.0,-999.0,98,-99.99,,,0.00,Acu-Link.com,2013-09-30 19:34:00,
2013-09-30 15:49:00,71.6,71.0,29.92,South,180,0.0,-999.0,98,-99.99,,,0.00,Acu-Link.com,2013-09-30 19:49:00,
2013-09-30 16:04:00,70.2,69.6,29.92,SSW,202,0.0,-999.0,98,-99.99,,,0.00,Acu-Link.com,2013-09-30 20:04:00,
2013-09-30 16:19:00,70.7,70.1,29.91,ESE,112,0.0,-999.0,98,-99.99,,,0.00,Acu-Link.com,2013-09-30 20:19:00,
2013-09-30 16:34:00,70.7,70.1,29.91,SSE,157,0.0,-999.0,98,-99.99,,,0.00,Acu-Link.com,2013-09-30 20:34:00,
2013-09-30 16:50:00,70.2,69.6,29.91,East,90,0.0,-999.0,98,-99.99,,,0.00,Acu-Link.com,2013-09-30 20:50:00,
2013-09-30 17:05:00,70.0,69.4,29.91,South,180,0.0,-999.0,98,-99.99,,,0.00,Acu-Link.com,2013-09-30 21:05:00,
2013-09-30 17:20:00,69.8,69.2,29.91,South,180,0.0,-999.0,98,-99.99,,,0.00,Acu-Link.com,2013-09-30 21:20:00,
2013-09-30 17:35:00,69.1,68.5,29.90,SSW,202,0.0,-999.0,98,-99.99,,,0.00,Acu-Link.com,2013-09-30 21:35:00,
2013-09-30 17:50:00,68.5,68.0,29.90,SSW,202,0.0,-999.0,98,-99.99,,,0.00,Acu-Link.com,2013-09-30 21:50:00,
2013-09-30 18:05:00,67.5,66.9,29.91,SSW,202,0.0,-999.0,98,-99.99,,,0.00,Acu-Link.com,2013-09-30 22:05:00,
2013-09-30 18:21:00,66.7,66.2,29.91,NW,315,0.0,-999.0,98,-99.99,,,0.00,Acu-Link.com,2013-09-30 22:21:00,
2013-09-30 18:36:00,65.7,65.1,29.91,SSW,202,0.0,-999.0,98,-99.99,,,0.00,Acu-Link.com,2013-09-30 22:36:00,
2013-09-30 18:51:00,64.4,63.8,29.91,SW,225,0.0,-999.0,98,-99.99,,,0.00,Acu-Link.com,2013-09-30 22:51:00,
2013-09-30 19:06:00,63.3,62.7,29.92,SW,225,0.0,-999.0,98,-99.99,,,0.00,Acu-Link.com,2013-09-30 23:06:00,
2013-09-30 19:21:00,62.1,61.5,29.92,SW,225,0.0,-999.0,98,-99.99,,,0.00,Acu-Link.com,2013-09-30 23:21:00,
2013-09-30 19:37:00,61.3,60.8,29.92,SW,225,0.0,-999.0,98,-99.99,,,0.00,Acu-Link.com,2013-09-30 23:37:00,
2013-09-30 19:52:00,60.4,59.9,29.92,WSW,247,0.0,-999.0,98,-99.99,,,0.00,Acu-Link.com,2013-09-30 23:52:00,
2013-09-30 20:07:00,59.9,59.3,29.92,WSW,247,0.0,-999.0,98,-99.99,,,0.00,Acu-Link.com,2013-10-01 00:07:00,
2013-09-30 20:22:00,59.2,58.6,29.93,SW,225,0.0,-999.0,98,-99.99,,,0.00,Acu-Link.com,2013-10-01 00:22:00,
2013-09-30 20:37:00,58.6,58.1,29.93,SSW,202,0.0,-999.0,98,-99.99,,,0.00,Acu-Link.com,2013-10-01 00:37:00,
2013-09-30 20:53:00,58.3,57.7,29.93,SW,225,0.0,-999.0,98,-99.99,,,0.00,Acu-Link.com,2013-10-01 00:53:00,
2013-09-30 21:08:00,57.9,57.4,29.93,SSW,202,0.0,-999.0,98,-99.99,,,0.00,Acu-Link.com,2013-10-01 01:08:00,
2013-09-30 21:23:00,57.6,57.0,29.93,SSW,202,0.0,-999.0,98,-99.99,,,0.00,Acu-Link.com,2013-10-01 01:23:00,
2013-09-30 21:38:00,57.4,56.8,29.93,WSW,247,0.0,-999.0,98,-99.99,,,0.00,Acu-Link.com,2013-10-01 01:38:00,
2013-09-30 21:54:00,57.0,56.5,29.94,WSW,247,0.0,-999.0,98,-99.99,,,0.00,Acu-Link.com,2013-10-01 01:54:00,
2013-09-30 22:09:00,56.7,56.1,29.94,SSW,202,0.0,-999.0,98,-99.99,,,0.00,Acu-Link.com,2013-10-01 02:09:00,
2013-09-30 22:24:00,56.1,55.6,29.94,SW,225,0.0,-999.0,98,-99.99,,,0.00,Acu-Link.com,2013-10-01 02:24:00,
2013-09-30 22:39:00,55.8,55.2,29.94,SSW,202,0.0,-999.0,98,-99.99,,,0.00,Acu-Link.com,2013-10-01 02:39:00,
2013-09-30 22:54:00,55.4,54.8,29.94,SSW,202,0.0,-999.0,98,-99.99,,,0.00,Acu-Link.com,2013-10-01 02:54:00,
2013-09-30 23:10:00,55.2,54.7,29.93,SW,225,0.0,-999.0,98,-99.99,,,0.00,Acu-Link.com,2013-10-01 03:10:00,
2013-09-30 23:25:00,54.7,54.1,29.94,West,270,0.0,-999.0,98,-99.99,,,0.00,Acu-Link.com,2013-10-01 03:25:00,
2013-09-30 23:40:00,54.3,53.8,29.94,South,180,0.0,-999.0,98,-99.99,,,0.00,Acu-Link.com,2013-10-01 03:40:00,
2013-09-30 23:55:00,54.0,53.4,29.94,SSW,202,0.0,-999.0,98,-99.99,,,0.00,Acu-Link.com,2013-10-01 03:55:00,